Tracking 22879 objects as of 21-Apr-2021
HD Live streaming from Space Station
objects crossing your sky now

COSMOS 534

Track COSMOS 534 now!
10-day predictions
COSMOS 534 is classified as:


NORAD ID: 6269
Int'l Code: 1972-087G
Perigee: 1,355.7 km
Apogee: 1,474.5 km
Inclination: 74.0 °
Period: 114.0 minutes
Semi major axis: 7786 km
RCS: 0.7724 m2 (medium)
Launch date: November 1, 1972
Source: Commonwealth of Independent States (former USSR) (CIS)
Launch site: PLESETSK MISSILE AND SPACE COMPLEX (PKMTR)
aabbcc
Your satellite tracking list
Your tracking list is empty




NASA's NSSDC Master Catalog

Two Line Element Set (TLE):
1 06269U 72087G   21110.88794326  .00000005  00000-0  11396-3 0  9997
2 06269  74.0335  85.1757 0076285 159.6818 226.4391 12.63631874235734
Source of the keplerian elements: AFSPC